Weather in Zeyuko

Russia / Karachay-Cherkess Republic     44°07′01″N   41°49′31″E
temp.,
°C
wind,
m/s
gust,
m/s
humid.,
%
clouds,
%
prec.,
mm/h
press.,
hPa
HPBL,
m
24 january, mon
mon2400:00−3e119710 0.3 101023
03:00−5wsw119713 0.6 101310
06:00−5sse3393100 0.0 101452
09:00−2s3588100 0.2 1015117
12:00+2s148713 0.0 1014154
15:000nne459956 0.0 1016229
18:00−3nne119883 0.0 102046
21:00−2nnw1193100 0.0 1020220
25 january, tue
tue2500:00−3nne2297100 0.6 1021195
03:00−3nnw2297100 2.6 1022194
06:00−4nnw1196100 0.8 1023159
09:00−4nne1195100 1.2 1025159
12:00−2ne228791 0.1 1025497
15:00−3ne339199 0.1 1025505
18:00−3ne2290100 0.1 1025308
21:00−4ne2294100 0.1 1024235
26 january, wed
wed2600:00−5ene1295100 0.2 1023133
03:00−6ese1195100 0.2 102255
06:00−6se1191100 0.0 102140
09:00−6sse1185100 0.0 102080
12:00−3nne1179100 0.0 1018295
15:00−3n2286100 0.0 1017304
18:00−4ne1195100 0.1 101866
21:00−4ne0094100 0.3 101869
27 january, thu
thu2700:00−5wsw0097100 0.1 101820
03:00−5ssw1197100 0.3 101934
06:00−6s1197100 0.1 101922
09:00−5ene0094100 0.3 1019105
12:00−3n218698 0.1 1018543
15:00−4n3391100 0.1 1019276
18:00−5nne2396100 0.3 1021220
21:00−7nne119782 0.5 102264
28 january, fri
fri2800:00−8ssw009797 0.1 102333
03:00−9s229219 0.1 102435
06:00−10s338385 0.0 102445
09:00−8s34788 0.0 102597
12:00−3ssw11605 0.0 1022203
15:00−3ne22725 0.0 1022317
18:00−7se11925 0.0 102410
21:00−8s458128 0.0 102565